Погода в Ломоносове

Погода в Ломоносове : погода сейчас, прогноз погоды и архив. Всё, что Вы хотите узнать о погоде в Ломоносове!

Поиск расширенной информации на нашем сайте:

Другие новости

Новости СМИ2

Главная страница сайта

Новости сайта

03.07.2017

Напоминаем, что на нашем специализированном сайте Метеоцентр.Азия вы можете получить высокодетализированные автоматические прогнозы погоды по пунктам России, СНГ и мира в авиационном формате (включающие направление и скорость ветра, видимость, явления погоды, количество и форму облачности, нижнюю и верхнюю границу облачности).


Погода в Ломоносове - сегодня

Время (UTC), дата Ветер
(°,м/с) 
Видим.   Явления Облачность Т
(°С)
Тd
(°С)
f(%) Тe
(°С)
Pmin
(гПа)
dP
(гПа)
Po
(мм)
O2
(г/м3)
Тmin Tmax R s Состояние
почвы
12 08.12.17 160 (Ю) 4000 м  слаб. снег  10/10 300 м 
[Ns]
+0.6 -0.5 92 995.2  -0.8  746  300           
21 08.12.17 200 (Ю) 10 км  {морось}  9/9 600 м 
[Sc]
+1.6 +1.1 96 -1  997.6  1.9  748  299           
09 09.12.17 150 (ЮВ) 20000 м    10/3 600 м средняя 
[Sc|Ac As]
+2 +0.9 92 +1  1001.8  1.1  751  300           
12 09.12.17 170 (Ю) 4000 м  слаб. ливневой дождь  10/10 300 м кучево-дожд. 
[Cb calv]
+1.8 +0.7 92 +1  1003.2  1.4  752  301           
15 09.12.17 160 (Ю) 10 км  в посл. час морось{ливн. осадки}  10/10 300 м 
[St]
+1.6 +0.8 94 +1  1003.7  0.5  752  301           
21 09.12.17 140 (ЮВ) 20000 м    10/6 600 м средняя 
[Sc|As trans]
+1.4 +0.3 92 +1  1004.6  0.3  753  302           
00 10.12.17 150 (ЮВ) 20000 м    10/0 средняя 
[Ac As]
+1.4 +0.3 92 +1  1004.3  -0.3  753  302           
09 10.12.17 130 (ЮВ) 4000 м  слаб. снег  10/10 300 м 
[Ns]
+0.5 +0.2 98 -1  1000.6  -1  750  302           
12 10.12.17 140 (ЮВ) 2000 м  снег  10/10 300 м 
[Ns]
+0.4 +0.1 98 999.9  -0.7  749  302           
15 10.12.17 140 (ЮВ) 4000 м  слаб. снег  10/10 300 м 
[Ns]
+0.6 +0 96 +1  999.7  -0.2  749  301           
21 10.12.17 220 (ЮЗ) 20000 м    10/10 570 м 
[Sc]
+0.6 -1.7 85 1001.6  1.5  751  302           
00 11.12.17 тихо ()   4000 м  слаб. снег  10/10 300 м 
[Ns]
+0 -0.9 94 1001.6  751  303           
09 11.12.17 290 (З) 20000 м    10/10 570 м 
[Sc]
-0.6 -2.7 86 -1  1003  1.3  752  304           
12 11.12.17 280 (З) 20000 м    10/10 600 м 
[Sc]
-0.7 -2.8 86 1003.3  0.3  752  304           
15 11.12.17 270 (З) 20000 м    10/0 средняя 
[Ac As]
-0.5 -1.7 92 -1  1004  0.7  753  304           
21 11.12.17 110 (В) 20000 м    10/10 600 м 
[Sc]
-0.5 -1.4 94 1005.3  0.5  754  304           
00 12.12.17 110 (В) 20000 м    10/0 средняя 
[Ac trans]
-1.2 -3.1 87 -3  1005.5  0.2  754  305           
06 13.12.17 230 (ЮЗ) 6-12{14}  4000 м  слаб. снег{дождь}  10/10 300 м 
[Ns]
+1 +0.7 98 -2  992  3.7  744  298  +0.8    мокрый или
старый снег
50-90% 
09 14.12.17 140 (ЮВ) 10 км    10/0 средняя, верхняя 
[Ac trans|Ci fib]
-0.4 -3.4 80 -2  1004.6  0.2  753  304           
12 14.12.17 140 (ЮВ) 10 км    6/0 верхняя 
[Ci fib]
-0.2 -3.8 77 -2  1003.9  -0.7  752  304           
15 14.12.17 120 (ЮВ) 20000 м    8/8 600 м 
[Sc]
-1 -3.6 82 -3  1002.8  -1.1  752  304           
21 14.12.17 120 (ЮВ) 4{10}  20000 м    10/10 600 м 
[Sc]
-0.8 -4.6 75 -3  999.6  -2  749  303           
00 15.12.17 100 (В) 4{10}  20000 м    10/10 600 м 
[Sc]
-0.8 -3.3 83 -3  998.1  -1.5  748  303           
12 15.12.17 150 (ЮВ) 4000 м  слаб. снег  10/10 300 м 
[Frnb|Ns]
+1 -0.1 92 -1  994.8  746  299           
15 15.12.17 200 (Ю) 4000 м  слаб. снег  10/10 300 м 
[Frnb|Ns]
+1.2 -0.5 88 -2  996.6  1.8  747  300           
Время (UTC), дата Ветер
(°,м/с) 
Видим.   Явления Облачность Т
(°С)
Тd
(°С)
f(%) Тe
(°С)
Pmin
(гПа)
dP
(гПа)
Po
(мм)
O2
(г/м3)
Тmin Tmax R s Состояние
почвы

Для получения пояснительной информации подведите курсор к названию столбца.

ПОГОДА в Ломоносове - архив

Всё, что Вы хотите узнать о погоде в Ломоносове - удобно и подробно!

Выберите нужную дату (начиная с 1 января 2015* года) и нажмите кнопку "Найти".
Будут отображены архивные сводки погоды по пункту Ломоносов, начиная с указанной даты.


Отображать данные в формате CSV (для использования в таблицах Excel)


Внимание! Наш архив погоды предназначен исключительно для личного некоммерческого использования в познавательных целях. Если Вам необходимы официальные справки о состоянии погоды (для производственных, юридических, коммерческих и т.п. целей), обращайтесь в органы Росгидромета.

*Примечание: данная дата относится к архиву по метеостанциям СССР (Россия, СНГ, Балтия).
Архив по метеостанциям Зарубежной Европы и Азии (кроме Китая) хранится 10 дней, по другим регионам земного шара (Китай, Африка, Америка, Австралия, Океания) - 1 день.

Ломоносов - район местоположения метеостанции


Название, широта, долгота, высота метеостанции:
Ломоносов 59.9°ш. 29.8°д. 2 м над ур. моря [Российская Федерация]

Дополнительная информация

В oтличие oт бoльшинства пoгoдных сайтoв мы публикуем пoдрoбную метеoинфoрмацию в детальнoм прoфессиoнальнoм фoрмате.

Характеристики температуры и влажнoсти вoздуха измеряются на высoте 2 м в тени вдали oт зданий и деревьев.
Скoрoсть ветра измеряется на высoте 10 м (на урoвне рoста челoвека скoрoсть ветра ниже в 1.5-2 раза). Если метеoстанция нахoдится в гoрoде или в лесу, тo скoрoсть ветра занижена на 2-4 м/с пo сравнению с oткрытым местoм. Скoрoсть ветра над акватoриями крупных рек и oзёр, а также на вершинах хoлмoв на 2-5 м/с выше, чем в oбычных услoвиях.
Атмoсфернoе давление в разных тoчках местнoсти мoжет значительнo oтличаться oт давления на метеoстанции, в зависимoсти oт услoвий рельефа (при пoдъёме на 10 м давление пoнижается примернo на 1 мм рт.ст.).